Flag for Poland Weather past 2 weeks in Olsztyn, Poland

Now
39 °F

Chilly.


Feels Like: 34 °F
Forecast: 36 / 44 °F
Wind: 6 mph from Southwest

Location: Ketrzyn

Current Time: Mar 6, 2015 at 4:09:19 PM

Latest Report: Mar 6, 2015 at 3:00 PM


Visibility: 28 mi

Pressure: 30.45 "Hg

Humidity: 69%

Dew point: 29 °F

Location of OlsztynLocation

Historic Weather in Olsztyn — Graph

°F

Olsztyn temperature yesterday

Maximum temperature yesterday: 37 °F (at 2:00 PM)
Minimum temperature yesterday: 29 °F (at 1:00 AM)
Average temperature yesterday: 33 °F

Past Weeks' High & Low Weather Summary

 TemperatureHumidityPressure
High46 °F (Mar 2, 3:00 PM)99% (Feb 27, 8:00 AM)30.51 "Hg (Feb 27, 8:00 AM)
Low29 °F (Mar 5, 1:00 AM)55% (Feb 20, 3:00 PM)29.35 "Hg (Mar 2, 3:00 PM)
Average37 °F86%29.91 "Hg
* Reported Feb 19 2:00 PM — Mar 6 2:00 PM, Olsztyn, Weather by CustomWeather, © 2015

Note: Actual official high and low records may vary slightly from our data, if they occured in-between our weather recording intervals... More about our weather records

Advertising

Olsztyn weather history for previous 24 hours

 ConditionsComfort  
Time TempWeatherWind HumidityBarometerVisibility
2:00 PM
Fri, Mar 6
39 °FChilly.5 mph71%30.46 "Hg22 mi
1:00 PM38 °FChilly.5 mph74%30.47 "Hg25 mi
12:00 PM38 °FChilly.5 mph74%30.49 "Hg25 mi
11:00 AM37 °FChilly.3 mph76%30.50 "Hg25 mi
10:00 AM35 °FChilly.3 mph80%30.51 "Hg22 mi
9:00 AM33 °FChilly.3 mph81%30.50 "Hg28 mi
8:00 AM32 °FChilly.2 mph85%30.51 "Hg25 mi
7:00 AM31 °FChilly.1 mph84%30.51 "Hg28 mi
6:00 AM32 °FChilly.2 mph83%30.50 "Hg31 mi
5:00 AM32 °FChilly.1 mph86%30.50 "Hg31 mi
3:00 AM32 °FChilly.No wind90%30.47 "Hg7 mi
2:00 AM32 °FChilly.1 mph92%30.48 "Hg10 mi
1:00 AM32 °FChilly.1 mph91%30.48 "Hg12 mi
12:00 AM32 °FChilly.1 mph91%30.47 "Hg11 mi
11:00 PM
Thu, Mar 5
32 °FFog.2 mph96%30.47 "Hg6 mi
9:00 PM33 °FFog.1 mph97%30.45 "Hg5 mi
8:00 PM32 °FFog.1 mph97%30.43 "Hg5 mi
7:00 PM32 °FChilly.1 mph97%30.40 "Hg2 mi
6:00 PM33 °FLight snow. Overcast.3 mph95%30.40 "Hg1 mi
5:00 PM36 °FChilly.2 mph85%30.37 "Hg14 mi
4:00 PM37 °FChilly.2 mph84%30.35 "Hg16 mi
Weather by CustomWeather, © 2015

See weather overviewHow to use our weather pages